M I D A S
Marine Information and Data Acquisition System
Tripno 1186 of the Zeeleeuw from 2006-11-21 07:35:17 to 2006-11-21 15:36:30
Back to CruiseResearch ActivitiesStationsMapUnderway DataData graphs

EquipmentUnitsComments
TimeDGPSUTC
LatitudeDGPSDM.mWGS84
LongitudeDGPSDM.mWGS84
SpeedMeteo Stationm/sRelative wind speed
DirectionMeteo StationdegRelative wind direction
TemperatureMeteo Stationdeg CelciusAir temperature
PressureMeteo StationPaAtmospheric pressure
HumidityMeteo Station%Relative humidity
Missing or incorrect values are displayed as -999
Metereological data collected by the RV Zeeleeuw from 2006-11-21 07:21:41 to 2006-11-21 15:39:16
                                                                                    Next 1000 lines
Time Latitude Longitude Speed Direction Temperature Pressure Humidity
2006-11-21 07:21:51 51°13.598 2°56.095 2.6 23 6.9 99710 91
2006-11-21 07:21:56 51°13.598 2°56.095 3.2 24 6.9 99710 91
2006-11-21 07:22:01 51°13.598 2°56.095 2.9 30 6.9 99710 91
2006-11-21 07:22:06 51°13.598 2°56.095 2.8 32 6.9 99710 91
2006-11-21 07:22:11 51°13.598 2°56.095 2.4 32 6.9 99710 91
2006-11-21 07:22:16 51°13.598 2°56.095 2.3 27 6.9 99710 91
2006-11-21 07:22:21 51°13.598 2°56.095 2.5 24 6.9 99700 91
2006-11-21 07:22:26 51°13.598 2°56.095 2.2 25 6.9 99700 91
2006-11-21 07:22:31 51°13.598 2°56.095 2.1 18 6.9 99710 91
2006-11-21 07:22:36 51°13.598 2°56.095 1.9 25 6.9 99710 91
2006-11-21 07:22:41 51°13.598 2°56.095 1.7 18 6.9 99710 91
2006-11-21 07:22:45 51°13.598 2°56.095 1.7 17 6.9 99710 91
2006-11-21 07:22:51 51°13.598 2°56.095 1.7 12 6.9 99710 91
2006-11-21 07:22:56 51°13.598 2°56.095 2.5 355 6.9 99710 91
2006-11-21 07:23:01 51°13.598 2°56.095 1.5 22 6.9 99710 91
2006-11-21 07:23:05 51°13.598 2°56.095 0.9 74 6.9 99710 91
2006-11-21 07:23:11 51°13.599 2°56.094 1.8 40 6.9 99710 91
2006-11-21 07:23:16 51°13.599 2°56.094 1.5 24 6.9 99710 91
2006-11-21 07:23:21 51°13.598 2°56.094 1 40 6.9 99710 91
2006-11-21 07:23:25 51°13.598 2°56.095 1.2 40 6.9 99710 91
2006-11-21 07:23:31 51°13.599 2°56.095 2 8 6.9 99710 91
2006-11-21 07:23:36 51°13.599 2°56.095 2.3 9 6.9 99710 91
2006-11-21 07:23:41 51°13.599 2°56.095 3 8 6.9 99710 91
2006-11-21 07:23:45 51°13.599 2°56.095 2.7 13 6.9 99710 91
2006-11-21 07:23:51 51°13.598 2°56.094 2.5 15 6.9 99700 91
2006-11-21 07:23:56 51°13.598 2°56.094 2.9 -999 6.9 99700 91
2006-11-21 07:24:01 51°13.598 2°56.094 3 5 6.9 99710 91
2006-11-21 07:24:06 51°13.598 2°56.094 2.8 16 6.9 99710 91
2006-11-21 07:24:11 51°13.598 2°56.094 3 27 6.9 99710 91
2006-11-21 07:24:16 51°13.598 2°56.094 3.3 9 6.9 99710 91
2006-11-21 07:24:21 51°13.598 2°56.094 3.6 5 6.9 99710 91
2006-11-21 07:24:26 51°13.598 2°56.094 2.9 358 6.9 99710 91
2006-11-21 07:24:31 51°13.598 2°56.094 3.6 7 6.9 99710 91
2006-11-21 07:24:36 51°13.598 2°56.094 4.2 9 6.9 99710 91
2006-11-21 07:24:41 51°13.598 2°56.093 4.5 17 6.9 99710 91
2006-11-21 07:24:46 51°13.598 2°56.094 3.1 18 6.9 99710 91
2006-11-21 07:24:51 51°13.598 2°56.094 3.2 16 6.9 99700 91
2006-11-21 07:24:56 51°13.598 2°56.094 4.7 1 6.9 99700 91
2006-11-21 07:25:01 51°13.598 2°56.094 3.5 2 6.9 99710 91
2006-11-21 07:25:05 51°13.598 2°56.094 3.9 18 6.9 99710 91
2006-11-21 07:25:11 51°13.598 2°56.094 2.8 6 6.9 99710 91
2006-11-21 07:25:16 51°13.598 2°56.094 3.1 19 6.9 99710 91
2006-11-21 07:25:21 51°13.598 2°56.094 2.5 16 6.9 99710 91
2006-11-21 07:25:25 51°13.598 2°56.094 2.1 16 6.9 99710 91
2006-11-21 07:25:31 51°13.598 2°56.094 3.4 9 7 99710 91
2006-11-21 07:25:36 51°13.598 2°56.094 3.3 9 7 99710 91
2006-11-21 07:25:41 51°13.598 2°56.094 4 23 7 99710 91
2006-11-21 07:25:45 51°13.598 2°56.094 3.5 22 7 99710 91
2006-11-21 07:25:51 51°13.598 2°56.094 2.5 357 7 99710 91
2006-11-21 07:25:56 51°13.598 2°56.094 2.1 358 7 99710 91
2006-11-21 07:26:01 51°13.598 2°56.094 3.5 3 7 99710 91
2006-11-21 07:26:06 51°13.598 2°56.094 3.6 4 7 99710 91
2006-11-21 07:26:11 51°13.598 2°56.095 4 2 7 99710 91
2006-11-21 07:26:16 51°13.598 2°56.095 3.4 7 7 99710 91
2006-11-21 07:26:21 51°13.598 2°56.095 4.1 12 7 99710 91
2006-11-21 07:26:26 51°13.598 2°56.095 4 15 7 99710 91
2006-11-21 07:26:31 51°13.599 2°56.095 3.7 17 7 99710 90
2006-11-21 07:26:36 51°13.599 2°56.095 4.5 24 7 99710 90
2006-11-21 07:26:41 51°13.599 2°56.095 3.4 24 7 99710 90
2006-11-21 07:26:46 51°13.599 2°56.095 4.1 19 7 99710 90
2006-11-21 07:26:51 51°13.599 2°56.095 4.3 22 7 99710 90
2006-11-21 07:26:56 51°13.599 2°56.095 4.3 28 7 99710 90
2006-11-21 07:27:01 51°13.599 2°56.095 3.7 34 7 99710 90
2006-11-21 07:27:06 51°13.599 2°56.095 4 6 7 99710 90
2006-11-21 07:27:11 51°13.599 2°56.095 4.6 23 7 99710 90
2006-11-21 07:27:16 51°13.599 2°56.095 4.7 24 7 99710 90
2006-11-21 07:27:21 51°13.599 2°56.095 5.2 25 7 99710 90
2006-11-21 07:27:25 51°13.599 2°56.096 3.6 13 7 99710 90
2006-11-21 07:27:31 51°13.599 2°56.096 3.4 11 7 99710 90
2006-11-21 07:27:36 51°13.599 2°56.096 2.6 2 7 99710 90
2006-11-21 07:27:40 51°13.599 2°56.096 2.5 14 7 99710 90
2006-11-21 07:27:43 51°13.599 2°56.096 2.8 14 7 99710 90
2006-11-21 07:27:47 51°13.599 2°56.096 2.6 12 7 99710 90
2006-11-21 07:27:52 51°13.599 2°56.096 2.6 12 7 99710 90
2006-11-21 07:27:57 51°13.599 2°56.096 3.5 23 7 99710 90
2006-11-21 07:28:01 51°13.599 2°56.096 3 21 7 99710 90
2006-11-21 07:28:06 51°13.599 2°56.097 3.1 11 7 99710 90
2006-11-21 07:28:12 51°13.599 2°56.097 2.8 27 7 99710 90
2006-11-21 07:28:17 51°13.599 2°56.097 2.9 20 7 99710 90
2006-11-21 07:28:21 51°13.599 2°56.097 2.8 19 7 99710 90
2006-11-21 07:28:27 51°13.599 2°56.098 2.8 21 7 99710 90
2006-11-21 07:28:32 51°13.599 2°56.097 2.5 18 7 99710 90
2006-11-21 07:28:37 51°13.599 2°56.097 2.9 15 7 99710 90
2006-11-21 07:28:41 51°13.599 2°56.097 6 4 7 99710 90
2006-11-21 07:28:47 51°13.599 2°56.097 6.2 22 7 99710 90
2006-11-21 07:28:52 51°13.599 2°56.097 6.2 19 7 99710 90
2006-11-21 07:28:56 51°13.599 2°56.097 5.2 28 7 99710 90
2006-11-21 07:29:01 51°13.599 2°56.096 5.3 20 7 99710 90
2006-11-21 07:29:07 51°13.598 2°56.095 4.3 18 7 99710 90
2006-11-21 07:29:13 51°13.598 2°56.096 2.5 29 7 99710 90
2006-11-21 07:29:17 51°13.598 2°56.096 3.1 14 7 99710 90
2006-11-21 07:29:22 51°13.598 2°56.096 2.9 352 7 99710 90
2006-11-21 07:29:27 51°13.598 2°56.096 2.6 13 7 99710 90
2006-11-21 07:29:32 51°13.599 2°56.096 4 4 7 99710 90
2006-11-21 07:29:37 51°13.599 2°56.097 4.7 1 7 99710 90
2006-11-21 07:29:42 51°13.599 2°56.097 3.9 11 7 99710 90
2006-11-21 07:29:47 51°13.599 2°56.097 3.4 9 7 99720 90
2006-11-21 07:29:52 51°13.598 2°56.096 2.9 23 7 99720 90
2006-11-21 07:29:57 51°13.599 2°56.096 3 15 7 99710 90
2006-11-21 07:30:01 51°13.599 2°56.096 3.2 2 7 99710 90
2006-11-21 07:30:07 51°13.599 2°56.096 3.4 24 7 99710 90
2006-11-21 07:30:12 51°13.598 2°56.095 3.9 17 7 99710 90
2006-11-21 07:30:17 51°13.598 2°56.095 3.8 6 7 99710 90
2006-11-21 07:30:21 51°13.598 2°56.096 3.2 8 7 99710 90
2006-11-21 07:30:27 51°13.599 2°56.096 3.5 7 7 99710 90
2006-11-21 07:30:32 51°13.598 2°56.095 4.1 12 7 99710 90
2006-11-21 07:30:37 51°13.598 2°56.095 5.9 14 7 99710 90
2006-11-21 07:30:41 51°13.598 2°56.095 5.9 15 7 99710 90
2006-11-21 07:30:47 51°13.598 2°56.095 4.8 17 7 99710 90
2006-11-21 07:30:52 51°13.598 2°56.096 4.2 15 7 99710 90
2006-11-21 07:30:57 51°13.598 2°56.096 3.9 30 7.1 99710 90
2006-11-21 07:31:02 51°13.599 2°56.096 4.7 26 7.1 99710 90
2006-11-21 07:31:07 51°13.599 2°56.097 4.4 20 7 99710 90
2006-11-21 07:31:11 51°13.599 2°56.097 4.4 18 7 99710 90
2006-11-21 07:31:16 51°13.599 2°56.097 4 14 7 99710 90
2006-11-21 07:31:22 51°13.599 2°56.096 4.2 8 7 99710 90
2006-11-21 07:31:27 51°13.599 2°56.096 4.8 14 7.1 99710 90
2006-11-21 07:31:31 51°13.599 2°56.096 2.1 1 7.1 99710 90
2006-11-21 07:31:36 51°13.599 2°56.096 2.2 16 7.1 99710 90
2006-11-21 07:31:42 51°13.599 2°56.096 2.9 5 7.1 99710 90
2006-11-21 07:31:47 51°13.599 2°56.096 3.4 357 7.1 99710 90
2006-11-21 07:31:52 51°13.599 2°56.096 3.8 20 7.1 99710 90
2006-11-21 07:31:56 51°13.598 2°56.096 2.6 21 7.1 99710 90
2006-11-21 07:32:02 51°13.598 2°56.096 2.9 21 7.1 99710 90
2006-11-21 07:32:07 51°13.598 2°56.096 3.6 21 7.1 99720 90
2006-11-21 07:32:12 51°13.598 2°56.096 4.2 8 7.1 99720 90
2006-11-21 07:32:16 51°13.598 2°56.096 3.9 15 7.1 99720 90
2006-11-21 07:32:21 51°13.598 2°56.096 4.5 18 7.1 99720 90
2006-11-21 07:32:26 51°13.598 2°56.095 4 15 7.1 99720 90
2006-11-21 07:32:31 51°13.598 2°56.096 2.8 12 7.1 99720 90
2006-11-21 07:32:37 51°13.599 2°56.096 3.4 18 7.1 99710 90
2006-11-21 07:32:41 51°13.599 2°56.096 2.4 23 7.1 99710 90
2006-11-21 07:32:47 51°13.598 2°56.096 2.7 7 7.1 99720 89
2006-11-21 07:32:52 51°13.598 2°56.096 2.5 23 7.1 99720 89
2006-11-21 07:32:57 51°13.598 2°56.096 3.4 9 7.1 99710 89
2006-11-21 07:33:02 51°13.598 2°56.096 4.3 20 7.1 99710 89
2006-11-21 07:33:05 51°13.598 2°56.096 3.5 21 7.1 99710 89
2006-11-21 07:33:12 51°13.598 2°56.096 2.6 23 7.1 99710 89
2006-11-21 07:33:17 51°13.598 2°56.096 3.2 31 7.1 99720 89
2006-11-21 07:33:21 51°13.598 2°56.096 3.9 21 7.1 99720 89
2006-11-21 07:33:27 51°13.598 2°56.096 4.1 29 7.1 99720 89
2006-11-21 07:33:32 51°13.599 2°56.096 4.3 26 7.1 99720 89
2006-11-21 07:33:36 51°13.599 2°56.096 4.5 30 7.1 99710 89
2006-11-21 07:33:42 51°13.599 2°56.096 3.2 24 7.1 99710 89
2006-11-21 07:33:47 51°13.599 2°56.096 2.8 24 7.1 99710 89
2006-11-21 07:33:52 51°13.599 2°56.096 4 26 7.1 99710 89
2006-11-21 07:33:56 51°13.599 2°56.096 4 33 7.1 99710 89
2006-11-21 07:34:02 51°13.599 2°56.096 3 21 7.1 99710 89
2006-11-21 07:34:07 51°13.598 2°56.095 3 22 7.1 99710 89
2006-11-21 07:34:12 51°13.598 2°56.095 3.6 27 7.1 99710 89
2006-11-21 07:34:17 51°13.597 2°56.095 3.6 31 7.1 99710 89
2006-11-21 07:34:21 51°13.597 2°56.095 3.5 27 7.1 99710 89
2006-11-21 07:34:26 51°13.596 2°56.095 3.3 25 7.1 99710 89
2006-11-21 07:34:32 51°13.596 2°56.095 2.2 357 7.1 99710 89
2006-11-21 07:34:37 51°13.597 2°56.095 1.9 359 7.1 99710 89
2006-11-21 07:34:41 51°13.597 2°56.095 2.4 13 7.1 99710 89
2006-11-21 07:34:45 51°13.597 2°56.094 2.5 16 7.1 99710 89
2006-11-21 07:34:52 51°13.598 2°56.093 2.1 40 7.1 99710 89
2006-11-21 07:34:56 51°13.599 2°56.091 1.3 7 7.1 99720 89
2006-11-21 07:35:01 51°13.599 2°56.089 1.5 19 7.1 99720 89
2006-11-21 07:35:07 51°13.6 2°56.086 1.6 40 7.1 99710 89
2006-11-21 07:35:12 51°13.601 2°56.082 3.5 26 7.1 99710 89
2006-11-21 07:35:17 51°13.603 2°56.078 4.2 32 7.1 99710 89
2006-11-21 07:35:23 51°13.604 2°56.072 4.2 37 7.1 99710 89
2006-11-21 07:35:27 51°13.606 2°56.067 3.6 23 7.1 99710 89
2006-11-21 07:35:32 51°13.608 2°56.062 3.2 36 7.1 99710 89
2006-11-21 07:35:37 51°13.609 2°56.056 2.4 33 7.1 99710 89
2006-11-21 07:35:42 51°13.611 2°56.05 2.8 32 7.1 99710 89
2006-11-21 07:35:47 51°13.612 2°56.043 3.1 26 7.1 99720 89
2006-11-21 07:35:52 51°13.614 2°56.036 4.3 34 7.1 99720 89
2006-11-21 07:35:57 51°13.616 2°56.029 4 24 7.1 99720 89
2006-11-21 07:36:03 51°13.618 2°56.021 3 37 7.1 99720 89
2006-11-21 07:36:07 51°13.619 2°56.015 3.4 31 7.1 99710 89
2006-11-21 07:36:12 51°13.621 2°56.007 5 32 7.1 99710 89
2006-11-21 07:36:17 51°13.623 2°56 4.1 31 7.1 99710 89
2006-11-21 07:36:22 51°13.626 2°55.992 4.4 30 7.1 99710 89
2006-11-21 07:36:27 51°13.628 2°55.984 4.6 28 7.1 99710 89
2006-11-21 07:36:32 51°13.63 2°55.976 3.7 30 7.1 99710 89
2006-11-21 07:36:37 51°13.632 2°55.968 2.7 41 7.1 99710 89
2006-11-21 07:36:43 51°13.635 2°55.958 2.6 73 7.1 99710 89
2006-11-21 07:36:47 51°13.636 2°55.952 3.2 24 7.1 99710 89
2006-11-21 07:36:53 51°13.639 2°55.942 3.3 75 7.1 99710 89
2006-11-21 07:36:57 51°13.641 2°55.935 4.1 33 7.1 99710 89
2006-11-21 07:37:02 51°13.643 2°55.927 4.3 76 7.1 99710 89
2006-11-21 07:37:07 51°13.646 2°55.919 3.8 26 7.2 99720 89
2006-11-21 07:37:13 51°13.649 2°55.909 3.9 40 7.2 99720 89
2006-11-21 07:37:17 51°13.651 2°55.902 3.2 18 7.2 99710 89
2006-11-21 07:37:22 51°13.654 2°55.893 4.8 36 7.2 99710 89
2006-11-21 07:37:27 51°13.657 2°55.885 2.9 18 7.1 99720 89
2006-11-21 07:37:32 51°13.66 2°55.876 3.7 79 7.1 99720 89
2006-11-21 07:37:37 51°13.664 2°55.867 5.6 39 7.1 99710 89
2006-11-21 07:37:43 51°13.668 2°55.857 5 38 7.1 99710 89
2006-11-21 07:37:47 51°13.67 2°55.85 4.2 43 7.2 99710 89
2006-11-21 07:37:52 51°13.673 2°55.841 4.2 42 7.2 99710 89
2006-11-21 07:37:57 51°13.676 2°55.833 3.8 19 7.1 99710 89
2006-11-21 07:38:02 51°13.678 2°55.825 3.5 43 7.1 99710 89
2006-11-21 07:38:07 51°13.68 2°55.817 3.5 37 7.1 99720 89
2006-11-21 07:38:11 51°13.682 2°55.811 3.8 82 7.1 99720 89
2006-11-21 07:38:17 51°13.685 2°55.802 3.2 43 7.1 99720 89
2006-11-21 07:38:22 51°13.687 2°55.795 4 35 7.1 99720 89
2006-11-21 07:38:27 51°13.688 2°55.788 2.7 42 7.1 99710 89
2006-11-21 07:38:31 51°13.69 2°55.782 3.2 38 7.1 99710 89
2006-11-21 07:38:37 51°13.691 2°55.774 3.3 33 7.1 99720 89
2006-11-21 07:38:41 51°13.692 2°55.768 3.6 37 7.1 99720 89
2006-11-21 07:38:47 51°13.694 2°55.761 2.8 33 7.1 99710 89
2006-11-21 07:38:52 51°13.695 2°55.755 3.5 40 7.1 99710 89
2006-11-21 07:38:57 51°13.695 2°55.751 4.5 39 7.1 99710 89
2006-11-21 07:39:01 51°13.696 2°55.747 4.7 75 7.1 99710 89
2006-11-21 07:39:07 51°13.697 2°55.742 4.6 32 7.1 99710 89
2006-11-21 07:39:12 51°13.697 2°55.739 3.7 44 7.1 99710 89
2006-11-21 07:39:16 51°13.697 2°55.736 3.6 33 7.1 99710 89
2006-11-21 07:39:21 51°13.698 2°55.733 3.1 28 7.1 99710 89
2006-11-21 07:39:26 51°13.698 2°55.731 3.1 29 7.1 99710 89
2006-11-21 07:39:32 51°13.698 2°55.729 4.3 32 7.1 99710 89
2006-11-21 07:39:37 51°13.698 2°55.729 4 38 7.1 99710 89
2006-11-21 07:39:41 51°13.699 2°55.728 3.7 33 7.1 99710 89
2006-11-21 07:39:47 51°13.699 2°55.728 3.2 38 7.1 99710 89
2006-11-21 07:39:51 51°13.7 2°55.728 1.7 74 7.1 99710 89
2006-11-21 07:39:56 51°13.7 2°55.729 1.3 37 7.1 99710 89
2006-11-21 07:40:01 51°13.701 2°55.729 1.7 30 7.1 99710 89
2006-11-21 07:40:07 51°13.702 2°55.73 2.3 33 7.1 99710 89
2006-11-21 07:40:11 51°13.703 2°55.731 2.8 73 7.1 99710 89
2006-11-21 07:40:16 51°13.704 2°55.731 2.5 42 7.1 99710 89
2006-11-21 07:40:22 51°13.706 2°55.732 1.5 82 7.1 99710 89
2006-11-21 07:40:27 51°13.708 2°55.733 1.8 38 7.1 99710 89
2006-11-21 07:40:32 51°13.71 2°55.733 2 44 7.1 99710 89
2006-11-21 07:40:37 51°13.712 2°55.734 1.5 35 7.1 99710 89
2006-11-21 07:40:41 51°13.714 2°55.734 1 282 7.1 99710 89
2006-11-21 07:40:47 51°13.717 2°55.733 1.5 247 7.1 99710 89
2006-11-21 07:40:52 51°13.719 2°55.733 1 285 7.1 99710 89
2006-11-21 07:40:56 51°13.721 2°55.732 1.2 26 7.1 99710 89
2006-11-21 07:41:01 51°13.724 2°55.732 1.9 78 7.1 99710 89
2006-11-21 07:41:07 51°13.728 2°55.73 2.3 26 7.1 99710 89
2006-11-21 07:41:12 51°13.731 2°55.729 2.7 79 7.1 99710 89
2006-11-21 07:41:16 51°13.733 2°55.728 2.4 264 7.1 99710 89
2006-11-21 07:41:22 51°13.737 2°55.725 2.2 287 7.1 99710 89
2006-11-21 07:41:27 51°13.74 2°55.722 3 260 7.1 99710 89
2006-11-21 07:41:32 51°13.744 2°55.719 1.7 285 7.1 99710 89
2006-11-21 07:41:37 51°13.748 2°55.715 2 258 7.1 99710 89
2006-11-21 07:41:41 51°13.75 2°55.711 2.2 284 7.1 99710 89
2006-11-21 07:41:47 51°13.755 2°55.706 2.4 264 7.1 99710 89
2006-11-21 07:41:52 51°13.76 2°55.701 3.5 280 7.1 99710 89
2006-11-21 07:41:56 51°13.763 2°55.697 3.2 255 7.2 99710 89
2006-11-21 07:42:02 51°13.769 2°55.691 3.1 285 7.2 99710 89
2006-11-21 07:42:07 51°13.774 2°55.686 2.4 249 7.1 99710 89
2006-11-21 07:42:10 51°13.777 2°55.683 1.9 280 7.1 99710 89
2006-11-21 07:42:17 51°13.785 2°55.675 2.4 19 7.2 99710 89
2006-11-21 07:42:21 51°13.789 2°55.67 1.9 282 7.2 99710 89
2006-11-21 07:42:26 51°13.796 2°55.664 2.3 251 7.2 99710 89
2006-11-21 07:42:32 51°13.803 2°55.658 3.1 281 7.2 99710 89
2006-11-21 07:42:37 51°13.81 2°55.652 3.3 256 7.1 99710 89
2006-11-21 07:42:41 51°13.815 2°55.648 3.5 279 7.1 99710 89
2006-11-21 07:42:47 51°13.824 2°55.641 3.2 237 7.2 99700 89
2006-11-21 07:42:52 51°13.831 2°55.635 2 287 7.2 99700 89
2006-11-21 07:42:56 51°13.837 2°55.631 2.1 20 7.1 99710 89
2006-11-21 07:43:02 51°13.846 2°55.624 2 278 7.1 99710 89
2006-11-21 07:43:07 51°13.853 2°55.618 2.2 36 7.1 99710 89
2006-11-21 07:43:12 51°13.861 2°55.611 2.4 285 7.1 99710 89
2006-11-21 07:43:16 51°13.867 2°55.606 1.5 318 7.1 99710 89
2006-11-21 07:43:21 51°13.875 2°55.6 1.1 283 7.1 99710 89
2006-11-21 07:43:26 51°13.883 2°55.594 1.4 317 7.2 99710 89
2006-11-21 07:43:32 51°13.892 2°55.586 2.4 282 7.2 99710 89
2006-11-21 07:43:37 51°13.901 2°55.58 1.4 36 7.2 99700 89
2006-11-21 07:43:41 51°13.907 2°55.575 1.5 284 7.2 99700 89
2006-11-21 07:43:45 51°13.914 2°55.57 2.1 323 7.2 99700 89
2006-11-21 07:43:52 51°13.925 2°55.562 2.3 284 7.2 99700 89
2006-11-21 07:43:57 51°13.934 2°55.556 2.3 315 7.2 99710 89
2006-11-21 07:44:01 51°13.941 2°55.552 2.1 285 7.2 99710 89
2006-11-21 07:44:07 51°13.951 2°55.545 3.2 316 7.2 99700 89
2006-11-21 07:44:12 51°13.96 2°55.539 3.1 283 7.2 99700 89
2006-11-21 07:44:17 51°13.969 2°55.533 3 319 7.1 99710 89
2006-11-21 07:44:21 51°13.976 2°55.529 3.6 285 7.1 99710 89
2006-11-21 07:44:26 51°13.985 2°55.523 3.2 315 7.2 99710 89
2006-11-21 07:44:32 51°13.996 2°55.515 2.5 287 7.2 99710 89
2006-11-21 07:44:37 51°14.005 2°55.509 2.7 23 7.2 99710 89
2006-11-21 07:44:42 51°14.015 2°55.503 4.1 282 7.2 99710 89
2006-11-21 07:44:47 51°14.024 2°55.497 3.5 30 7.2 99700 89
2006-11-21 07:44:52 51°14.034 2°55.491 3.1 287 7.2 99700 89
2006-11-21 07:44:56 51°14.042 2°55.485 3.5 30 7.2 99710 89
2006-11-21 07:45:01 51°14.052 2°55.479 3.7 281 7.2 99710 89
2006-11-21 07:45:07 51°14.064 2°55.47 2.9 236 7.2 99710 89
2006-11-21 07:45:11 51°14.072 2°55.465 3.2 284 7.2 99710 89
2006-11-21 07:45:16 51°14.082 2°55.458 3.1 241 7.2 99710 89
2006-11-21 07:45:22 51°14.094 2°55.449 4.4 281 7.2 99710 89
2006-11-21 07:45:27 51°14.105 2°55.441 4.6 25 7.2 99700 89
2006-11-21 07:45:32 51°14.116 2°55.433 4.4 280 7.2 99700 89
2006-11-21 07:45:36 51°14.124 2°55.427 3.4 327 7.2 99710 89
2006-11-21 07:45:42 51°14.138 2°55.416 3 287 7.2 99710 89
2006-11-21 07:45:47 51°14.149 2°55.407 3.4 36 7.2 99710 89
2006-11-21 07:45:52 51°14.16 2°55.397 4 282 7.2 99710 89
2006-11-21 07:45:57 51°14.171 2°55.387 2.5 20 7.2 99710 89
2006-11-21 07:46:02 51°14.182 2°55.376 4.8 281 7.2 99710 89
2006-11-21 07:46:07 51°14.193 2°55.365 3.7 35 7.2 99710 89
2006-11-21 07:46:12 51°14.204 2°55.353 3.4 280 7.2 99710 89
2006-11-21 07:46:17 51°14.214 2°55.341 3.7 321 7.2 99710 89
2006-11-21 07:46:21 51°14.222 2°55.33 4.3 280 7.2 99710 89
2006-11-21 07:46:27 51°14.234 2°55.313 4.8 321 7.2 99710 89
2006-11-21 07:46:32 51°14.244 2°55.299 4.8 282 7.2 99710 89
2006-11-21 07:46:37 51°14.253 2°55.284 4.5 36 7.2 99710 89
2006-11-21 07:46:41 51°14.261 2°55.272 5.1 283 7.2 99710 89
2006-11-21 07:46:47 51°14.272 2°55.253 7.4 31 7.2 99700 89
2006-11-21 07:46:51 51°14.279 2°55.24 7.4 285 7.2 99700 89
2006-11-21 07:46:57 51°14.289 2°55.22 5.6 27 7.2 99700 89
2006-11-21 07:47:01 51°14.296 2°55.207 6.5 286 7.2 99700 89
2006-11-21 07:47:07 51°14.306 2°55.187 7.8 30 7.2 99700 89
2006-11-21 07:47:12 51°14.314 2°55.17 8 282 7.2 99700 89
2006-11-21 07:47:16 51°14.321 2°55.156 7.1 30 7.2 99700 89
2006-11-21 07:47:22 51°14.331 2°55.136 6.4 280 7.2 99700 89
2006-11-21 07:47:27 51°14.339 2°55.119 4.8 27 7.2 99700 89
2006-11-21 07:47:32 51°14.348 2°55.102 6.3 285 7.2 99700 89
2006-11-21 07:47:36 51°14.355 2°55.088 7.6 36 7.2 99700 89
2006-11-21 07:47:42 51°14.366 2°55.069 6.5 281 7.2 99700 89
2006-11-21 07:47:47 51°14.376 2°55.053 9.8 244 7.3 99700 89
2006-11-21 07:47:52 51°14.387 2°55.038 8.6 285 7.3 99700 89
2006-11-21 07:47:56 51°14.396 2°55.026 8.7 24 7.2 99700 89
2006-11-21 07:48:01 51°14.407 2°55.011 8.1 280 7.2 99700 89
2006-11-21 07:48:07 51°14.42 2°54.993 8.5 20 7.3 99700 89
2006-11-21 07:48:11 51°14.429 2°54.981 8.9 286 7.3 99700 89
2006-11-21 07:48:16 51°14.441 2°54.967 8.3 247 7.3 99700 89
2006-11-21 07:48:21 51°14.452 2°54.953 8.5 282 7.3 99700 89
2006-11-21 07:48:27 51°14.467 2°54.938 9 247 7.3 99690 89
2006-11-21 07:48:32 51°14.479 2°54.926 9.2 279 7.3 99690 89
2006-11-21 07:48:37 51°14.492 2°54.914 9.6 253 7.3 99690 89
2006-11-21 07:48:41 51°14.502 2°54.904 8.1 286 7.3 99690 89
2006-11-21 07:48:45 51°14.512 2°54.894 6.9 254 7.3 99700 89
2006-11-21 07:48:52 51°14.53 2°54.877 7.3 284 7.3 99700 89
2006-11-21 07:48:57 51°14.543 2°54.863 7 252 7.4 99690 89
2006-11-21 07:49:02 51°14.555 2°54.85 8 284 7.4 99690 89
2006-11-21 07:49:07 51°14.569 2°54.836 7.1 250 7.4 99700 89
2006-11-21 07:49:12 51°14.582 2°54.823 7.3 286 7.4 99700 89
2006-11-21 07:49:17 51°14.596 2°54.81 6.6 254 7.4 99700 89
2006-11-21 07:49:21 51°14.608 2°54.799 6.8 280 7.4 99700 89
2006-11-21 07:49:27 51°14.625 2°54.784 8.5 247 7.4 99700 89
2006-11-21 07:49:31 51°14.637 2°54.773 6.9 286 7.4 99700 89
2006-11-21 07:49:37 51°14.655 2°54.759 6.8 249 7.4 99690 89
2006-11-21 07:49:42 51°14.67 2°54.746 8 284 7.4 99690 89
2006-11-21 07:49:45 51°14.68 2°54.739 7.4 21 7.5 99690 90
2006-11-21 07:49:52 51°14.701 2°54.723 6.3 280 7.5 99690 90
2006-11-21 07:49:56 51°14.714 2°54.714 7 25 7.5 99710 90
2006-11-21 07:50:01 51°14.729 2°54.702 7.4 284 7.5 99710 90
2006-11-21 07:50:07 51°14.748 2°54.689 7.9 24 7.5 99700 90
2006-11-21 07:50:12 51°14.764 2°54.677 8.1 283 7.5 99700 90
2006-11-21 07:50:17 51°14.78 2°54.666 6.7 244 7.6 99690 90
2006-11-21 07:50:22 51°14.796 2°54.653 7.4 279 7.6 99690 90
2006-11-21 07:50:27 51°14.812 2°54.64 7.1 242 7.6 99690 90
2006-11-21 07:50:32 51°14.827 2°54.626 7.1 281 7.6 99690 90
2006-11-21 07:50:37 51°14.842 2°54.612 7.2 244 7.6 99680 90
2006-11-21 07:50:41 51°14.854 2°54.6 6.8 282 7.6 99680 90
2006-11-21 07:50:47 51°14.873 2°54.583 7.6 244 7.6 99690 90
2006-11-21 07:50:52 51°14.888 2°54.568 9.2 -999 7.6 99690 90
2006-11-21 07:50:57 51°14.903 2°54.553 7.1 242 7.7 99690 90
2006-11-21 07:51:02 51°14.918 2°54.539 7.4 286 7.7 99690 90
2006-11-21 07:51:07 51°14.933 2°54.524 9.7 247 7.7 99690 90
2006-11-21 07:51:12 51°14.949 2°54.511 6.7 281 7.7 99690 90
2006-11-21 07:51:16 51°14.961 2°54.5 7.1 252 7.7 99680 90
2006-11-21 07:51:22 51°14.98 2°54.486 6 280 7.7 99680 90
2006-11-21 07:51:27 51°14.996 2°54.475 7.4 256 7.8 99690 90
2006-11-21 07:51:32 51°15.012 2°54.464 6.6 284 7.8 99690 90
2006-11-21 07:51:37 51°15.028 2°54.452 7.5 247 7.8 99690 90
2006-11-21 07:51:41 51°15.04 2°54.443 7 279 7.8 99690 90
2006-11-21 07:51:47 51°15.058 2°54.426 8 247 7.8 99690 90
2006-11-21 07:51:52 51°15.073 2°54.412 7.8 -999 7.8 99690 90
2006-11-21 07:51:56 51°15.084 2°54.399 7.4 244 7.8 99690 90
2006-11-21 07:52:02 51°15.1 2°54.378 9 278 7.8 99690 90
2006-11-21 07:52:07 51°15.114 2°54.361 9 25 7.8 99700 90
2006-11-21 07:52:12 51°15.127 2°54.342 8.1 279 7.8 99700 90
2006-11-21 07:52:16 51°15.138 2°54.327 9.1 242 7.9 99680 90
2006-11-21 07:52:21 51°15.151 2°54.308 8.6 284 7.9 99680 90
2006-11-21 07:52:27 51°15.168 2°54.287 9.2 244 7.9 99690 90
2006-11-21 07:52:32 51°15.182 2°54.269 9.7 279 7.9 99690 90
2006-11-21 07:52:36 51°15.193 2°54.255 8.1 244 7.9 99680 90
2006-11-21 07:52:41 51°15.207 2°54.237 8.1 279 7.9 99680 90
2006-11-21 07:52:47 51°15.224 2°54.216 8.7 247 8 99670 90
2006-11-21 07:52:52 51°15.238 2°54.199 7.6 -999 8 99670 90
2006-11-21 07:52:57 51°15.252 2°54.182 8.5 248 8 99670 90
2006-11-21 07:53:01 51°15.264 2°54.169 8.2 280 8 99670 90
2006-11-21 07:53:07 51°15.281 2°54.149 7.2 248 8 99680 90
2006-11-21 07:53:12 51°15.296 2°54.132 9.4 285 8 99680 90
2006-11-21 07:53:16 51°15.308 2°54.119 9.4 24 8 99680 90
2006-11-21 07:53:22 51°15.325 2°54.099 10.6 279 8 99680 90
2006-11-21 07:53:27 51°15.339 2°54.083 7.9 243 8.1 99670 90
2006-11-21 07:53:31 51°15.351 2°54.068 9.5 283 8.1 99670 90
2006-11-21 07:53:37 51°15.368 2°54.048 9.1 248 8.1 99660 90
2006-11-21 07:53:41 51°15.379 2°54.035 8.5 279 8.1 99660 90
2006-11-21 07:53:47 51°15.397 2°54.014 8.9 243 8.1 99660 90
2006-11-21 07:53:52 51°15.411 2°53.997 9.2 284 8.1 99660 90
2006-11-21 07:53:56 51°15.423 2°53.984 8.5 249 8.2 99680 91
2006-11-21 07:54:02 51°15.441 2°53.964 9.8 281 8.2 99680 91
2006-11-21 07:54:07 51°15.455 2°53.948 10.2 245 8.2 99670 91
2006-11-21 07:54:12 51°15.471 2°53.933 8.2 286 8.2 99670 91
2006-11-21 07:54:17 51°15.485 2°53.916 8.8 243 8.2 99670 91
2006-11-21 07:54:22 51°15.5 2°53.901 10.8 279 8.2 99670 91
2006-11-21 07:54:27 51°15.515 2°53.885 9.4 26 8.2 99670 90
2006-11-21 07:54:32 51°15.53 2°53.869 8.6 283 8.2 99670 90
2006-11-21 07:54:37 51°15.545 2°53.854 9.1 243 8.3 99680 90
2006-11-21 07:54:41 51°15.557 2°53.841 9.2 282 8.3 99680 90
2006-11-21 07:54:46 51°15.572 2°53.827 10.1 22 8.3 99680 90
2006-11-21 07:54:52 51°15.59 2°53.809 9.3 -999 8.3 99680 90
2006-11-21 07:54:56 51°15.602 2°53.797 9.5 24 8.3 99670 90
2006-11-21 07:55:01 51°15.616 2°53.781 9.8 282 8.3 99670 90
2006-11-21 07:55:07 51°15.633 2°53.762 9.7 239 8.3 99660 90
2006-11-21 07:55:12 51°15.648 2°53.746 8.7 280 8.3 99660 90
2006-11-21 07:55:17 51°15.663 2°53.731 9.7 235 8.3 99670 90
2006-11-21 07:55:22 51°15.678 2°53.715 10.4 281 8.3 99670 90
2006-11-21 07:55:27 51°15.693 2°53.699 16.1 31 8.3 99670 90
2006-11-21 07:55:31 51°15.704 2°53.687 12.7 286 8.3 99680 90
2006-11-21 07:55:37 51°15.722 2°53.669 15.3 237 8.3 99680 90
2006-11-21 07:55:42 51°15.738 2°53.655 14.2 280 8.4 99670 90
2006-11-21 07:55:47 51°15.752 2°53.64 13.8 240 8.4 99670 90
2006-11-21 07:55:51 51°15.764 2°53.628 13.5 279 8.4 99680 90
2006-11-21 07:55:57 51°15.782 2°53.61 14.8 236 8.4 99660 90
2006-11-21 07:56:02 51°15.797 2°53.595 14.7 284 8.4 99660 90
2006-11-21 07:56:07 51°15.812 2°53.58 16.5 235 8.4 99660 90
2006-11-21 07:56:11 51°15.824 2°53.568 16.6 284 8.5 99640 90
2006-11-21 07:56:17 51°15.841 2°53.549 16.3 237 8.5 99640 90
2006-11-21 07:56:22 51°15.856 2°53.535 13.7 278 8.5 99650 90
2006-11-21 07:56:27 51°15.87 2°53.52 15.9 235 8.5 99650 90
2006-11-21 07:56:31 51°15.882 2°53.508 17.1 283 8.6 99640 90
2006-11-21 07:56:37 51°15.9 2°53.491 17.4 31 8.6 99630 90
2006-11-21 07:56:41 51°15.912 2°53.479 16.6 280 8.6 99630 90
2006-11-21 07:56:47 51°15.93 2°53.462 16 239 8.6 99630 90
2006-11-21 07:56:51 51°15.942 2°53.451 16.4 283 8.7 99650 89
2006-11-21 07:56:57 51°15.96 2°53.434 17.2 239 8.7 99650 89
2006-11-21 07:57:01 51°15.972 2°53.422 15.9 281 8.7 99630 88
2006-11-21 07:57:07 51°15.99 2°53.406 15.1 239 8.8 99630 87
2006-11-21 07:57:12 51°16.005 2°53.392 16 281 8.8 99630 87
2006-11-21 07:57:17 51°16.02 2°53.378 14.9 31 8.8 99630 87
2006-11-21 07:57:21 51°16.032 2°53.367 15.2 284 8.9 99610 87
2006-11-21 07:57:27 51°16.049 2°53.35 15.5 238 8.9 99610 87
2006-11-21 07:57:32 51°16.065 2°53.337 15.4 283 8.9 99630 86
2006-11-21 07:57:37 51°16.08 2°53.324 15.4 239 9 99630 86
2006-11-21 07:57:41 51°16.092 2°53.313 15.3 282 9 99630 86
2006-11-21 07:57:47 51°16.11 2°53.297 15.6 238 9.1 99640 85
2006-11-21 07:57:51 51°16.122 2°53.287 15.6 281 9.1 99640 85
2006-11-21 07:57:57 51°16.141 2°53.271 12.6 237 9.2 99630 85
2006-11-21 07:58:02 51°16.156 2°53.257 14.5 283 9.2 99630 85
2006-11-21 07:58:06 51°16.168 2°53.246 14.1 239 9.2 99630 85
2006-11-21 07:58:11 51°16.182 2°53.234 15 283 9.3 99650 85
2006-11-21 07:58:17 51°16.201 2°53.218 16.4 34 9.4 99630 84
2006-11-21 07:58:22 51°16.216 2°53.205 15.2 283 9.4 99630 84
2006-11-21 07:58:27 51°16.231 2°53.193 16 238 9.5 99630 84
2006-11-21 07:58:31 51°16.243 2°53.183 14.4 280 9.5 99630 84
2006-11-21 07:58:37 51°16.261 2°53.167 14.8 237 9.5 99630 84
2006-11-21 07:58:42 51°16.277 2°53.155 15.6 281 9.5 99620 83
2006-11-21 07:58:47 51°16.292 2°53.142 14.8 238 9.6 99620 82
2006-11-21 07:58:52 51°16.308 2°53.13 15.6 279 9.6 99620 82
2006-11-21 07:58:57 51°16.323 2°53.118 13.4 239 9.6 99620 82
2006-11-21 07:59:02 51°16.338 2°53.105 14.7 284 9.6 99630 82
2006-11-21 07:59:07 51°16.354 2°53.092 14.6 237 9.7 99620 81
2006-11-21 07:59:12 51°16.368 2°53.081 14.5 284 9.7 99620 81
2006-11-21 07:59:17 51°16.384 2°53.068 14.4 32 9.7 99620 81
2006-11-21 07:59:21 51°16.395 2°53.057 12.9 281 9.7 99630 80
2006-11-21 07:59:26 51°16.41 2°53.045 14 236 9.7 99630 80
2006-11-21 07:59:31 51°16.426 2°53.033 15.2 284 9.7 99620 80
2006-11-21 07:59:37 51°16.444 2°53.019 14.7 35 9.8 99650 79
2006-11-21 07:59:41 51°16.456 2°53.01 16.6 281 9.8 99650 79
2006-11-21 07:59:47 51°16.474 2°52.995 14.3 237 9.8 99650 79
2006-11-21 07:59:52 51°16.49 2°52.984 16.3 285 9.9 99640 80
2006-11-21 07:59:56 51°16.502 2°52.974 14 31 9.9 99630 79
2006-11-21 08:00:01 51°16.517 2°52.962 13.9 285 9.9 99630 79
2006-11-21 08:00:07 51°16.536 2°52.948 13.5 35 9.9 99630 79
2006-11-21 08:00:11 51°16.548 2°52.938 16.6 283 9.9 99620 78
2006-11-21 08:00:17 51°16.566 2°52.923 17 238 9.9 99620 77
2006-11-21 08:00:22 51°16.581 2°52.911 15.1 285 9.9 99620 77
2006-11-21 08:00:27 51°16.597 2°52.899 16.1 33 9.9 99620 77
2006-11-21 08:00:32 51°16.612 2°52.887 13.6 278 10 99630 77
2006-11-21 08:00:37 51°16.627 2°52.875 14.5 34 10 99630 77
2006-11-21 08:00:42 51°16.643 2°52.862 13.8 282 10 99610 76
2006-11-21 08:00:47 51°16.658 2°52.851 14.6 236 10 99610 76
2006-11-21 08:00:51 51°16.67 2°52.841 14 283 10 99630 76
2006-11-21 08:00:57 51°16.688 2°52.827 13.2 236 10 99630 76
2006-11-21 08:01:01 51°16.701 2°52.817 15.5 279 10.1 99630 76
2006-11-21 08:01:07 51°16.719 2°52.803 14.8 240 10.1 99630 76
2006-11-21 08:01:12 51°16.734 2°52.793 14.1 279 10.1 99640 76
2006-11-21 08:01:17 51°16.75 2°52.782 14.4 239 10.1 99640 76
2006-11-21 08:01:21 51°16.762 2°52.773 12.3 285 10.1 99630 75
2006-11-21 08:01:27 51°16.781 2°52.762 12.7 238 10.1 99630 75
2006-11-21 08:01:32 51°16.797 2°52.752 12.7 279 10.1 99630 75
2006-11-21 08:01:37 51°16.812 2°52.742 14 240 10.1 99630 75
2006-11-21 08:01:41 51°16.824 2°52.734 13 286 10.2 99620 75
2006-11-21 08:01:47 51°16.843 2°52.722 12.7 30 10.2 99640 75
2006-11-21 08:01:51 51°16.856 2°52.713 13.3 286 10.2 99640 75
2006-11-21 08:01:57 51°16.874 2°52.701 14 32 10.2 99640 75
2006-11-21 08:02:01 51°16.887 2°52.693 12.7 279 10.2 99630 74
2006-11-21 08:02:07 51°16.905 2°52.68 13.7 37 10.2 99630 74
2006-11-21 08:02:12 51°16.921 2°52.67 16.7 284 10.3 99640 75
2006-11-21 08:02:17 51°16.937 2°52.661 16.9 240 10.3 99640 75
2006-11-21 08:02:21 51°16.949 2°52.653 16.7 281 10.3 99640 75
2006-11-21 08:02:27 51°16.968 2°52.642 15.7 238 10.3 99630 75
2006-11-21 08:02:31 51°16.981 2°52.634 14.8 283 10.3 99630 75
2006-11-21 08:02:37 51°17 2°52.622 13.6 34 10.3 99610 75
2006-11-21 08:02:42 51°17.016 2°52.613 15.1 282 10.3 99610 75
2006-11-21 08:02:47 51°17.032 2°52.604 13.6 242 10.3 99600 74
2006-11-21 08:02:51 51°17.045 2°52.598 15.2 283 10.3 99600 74
2006-11-21 08:02:56 51°17.061 2°52.591 13.3 239 10.3 99600 74
2006-11-21 08:03:01 51°17.077 2°52.584 13.4 281 10.4 99620 74
2006-11-21 08:03:07 51°17.096 2°52.577 14 239 10.4 99620 74
2006-11-21 08:03:11 51°17.109 2°52.573 13.9 282 10.4 99620 74
2006-11-21 08:03:17 51°17.128 2°52.568 14.3 244 10.4 99620 74
2006-11-21 08:03:21 51°17.142 2°52.565 13.3 286 10.4 99630 74
2006-11-21 08:03:27 51°17.162 2°52.561 14 241 10.4 99640 75
2006-11-21 08:03:32 51°17.178 2°52.557 12.2 278 10.4 99640 75
2006-11-21 08:03:36 51°17.191 2°52.554 13.6 243 10.4 99630 74
2006-11-21 08:03:41 51°17.207 2°52.549 12.7 279 10.4 99630 74
2006-11-21 08:03:47 51°17.227 2°52.545 14.9 245 10.4 99630 73
2006-11-21 08:03:52 51°17.244 2°52.541 14.5 287 10.4 99630 73
2006-11-21 08:03:57 51°17.26 2°52.537 13.4 242 10.4 99630 73
2006-11-21 08:04:01 51°17.273 2°52.533 12.1 281 10.4 99640 73
2006-11-21 08:04:07 51°17.293 2°52.529 12.2 244 10.4 99630 73
2006-11-21 08:04:12 51°17.31 2°52.526 13.9 280 10.4 99630 73
2006-11-21 08:04:17 51°17.327 2°52.522 12.1 247 10.4 99630 73
2006-11-21 08:04:21 51°17.34 2°52.52 12.5 281 10.4 99620 73
2006-11-21 08:04:27 51°17.36 2°52.516 10.5 241 10.4 99620 73
2006-11-21 08:04:32 51°17.376 2°52.514 11.8 283 10.4 99630 72
2006-11-21 08:04:37 51°17.393 2°52.509 13.1 243 10.4 99630 72
2006-11-21 08:04:42 51°17.41 2°52.508 14 281 10.4 99630 72
2006-11-21 08:04:47 51°17.426 2°52.504 16.3 242 10.4 99630 72
2006-11-21 08:04:51 51°17.439 2°52.502 13.7 282 10.4 99620 72
2006-11-21 08:04:57 51°17.459 2°52.498 12.4 245 10.4 99640 72
2006-11-21 08:05:01 51°17.473 2°52.496 14 280 10.4 99640 72
2006-11-21 08:05:07 51°17.493 2°52.491 14.8 245 10.4 99640 72
2006-11-21 08:05:12 51°17.509 2°52.489 14.8 285 10.4 99620 72
2006-11-21 08:05:16 51°17.523 2°52.486 13.3 246 10.4 99620 72
2006-11-21 08:05:21 51°17.539 2°52.484 12.8 286 10.4 99620 72
2006-11-21 08:05:27 51°17.559 2°52.481 10.5 239 10.4 99620 72
2006-11-21 08:05:31 51°17.572 2°52.479 12.2 284 10.4 99620 71
2006-11-21 08:05:36 51°17.588 2°52.478 14.1 245 10.4 99620 71
2006-11-21 08:05:41 51°17.604 2°52.476 12.6 285 10.4 99620 71
2006-11-21 08:05:47 51°17.624 2°52.474 12.6 245 10.4 99620 71
2006-11-21 08:05:51 51°17.637 2°52.473 12.6 287 10.4 99630 71
2006-11-21 08:05:56 51°17.654 2°52.471 11 243 10.4 99640 71
2006-11-21 08:06:01 51°17.67 2°52.471 11.6 282 10.4 99640 71
2006-11-21 08:06:07 51°17.69 2°52.467 12.3 242 10.4 99630 71
2006-11-21 08:06:12 51°17.706 2°52.469 13.7 278 10.4 99630 71
2006-11-21 08:06:17 51°17.723 2°52.465 13.4 241 10.4 99630 71
2006-11-21 08:06:22 51°17.739 2°52.467 12.1 285 10.4 99630 71
2006-11-21 08:06:27 51°17.755 2°52.463 13.8 243 10.4 99620 71
2006-11-21 08:06:32 51°17.772 2°52.464 14.1 281 10.4 99620 71
2006-11-21 08:06:37 51°17.788 2°52.462 13.5 244 10.4 99620 71
2006-11-21 08:06:42 51°17.804 2°52.461 15.9 281 10.4 99630 71
2006-11-21 08:06:47 51°17.821 2°52.46 12.4 245 10.4 99630 71
2006-11-21 08:06:52 51°17.837 2°52.461 11.9 284 10.4 99620 71
2006-11-21 08:06:57 51°17.853 2°52.463 10.9 252 10.4 99620 71
2006-11-21 08:07:01 51°17.866 2°52.467 11.9 280 10.4 99630 70
2006-11-21 08:07:07 51°17.886 2°52.468 12 257 10.4 99630 70
2006-11-21 08:07:11 51°17.898 2°52.476 11 279 10.4 99600 70
2006-11-21 08:07:17 51°17.918 2°52.478 9.4 253 10.4 99630 70
2006-11-21 08:07:21 51°17.93 2°52.483 13.3 286 10.4 99630 70
2006-11-21 08:07:27 51°17.949 2°52.49 8.9 250 10.4 99630 70
2006-11-21 08:07:32 51°17.966 2°52.495 9.9 278 10.4 99630 70
2006-11-21 08:07:37 51°17.982 2°52.501 12.1 251 10.5 99630 70
2006-11-21 08:07:42 51°17.998 2°52.505 11.2 280 10.5 99630 70
2006-11-21 08:07:47 51°18.014 2°52.512 9.8 256 10.5 99640 71
2006-11-21 08:07:51 51°18.027 2°52.515 10.9 283 10.5 99640 71
2006-11-21 08:07:57 51°18.046 2°52.524 9.5 255 10.5 99640 71
2006-11-21 08:08:01 51°18.059 2°52.529 10.6 286 10.5 99640 71
2006-11-21 08:08:07 51°18.078 2°52.538 7.2 254 10.5 99640 71
2006-11-21 08:08:12 51°18.093 2°52.549 9.7 281 10.5 99640 71
2006-11-21 08:08:16 51°18.106 2°52.557 5.2 262 10.5 99640 71
2006-11-21 08:08:21 51°18.121 2°52.569 5.8 279 10.5 99660 71
2006-11-21 08:08:26 51°18.135 2°52.581 5.3 267 10.5 99630 71
2006-11-21 08:08:32 51°18.15 2°52.601 5.6 285 10.5 99630 71
2006-11-21 08:08:37 51°18.163 2°52.616 4.4 266 10.5 99640 70
2006-11-21 08:08:42 51°18.175 2°52.635 4.5 280 10.5 99640 70
2006-11-21 08:08:47 51°18.188 2°52.652 4 265 10.5 99640 70
2006-11-21 08:08:52 51°18.198 2°52.673 3.9 286 10.4 99650 70
2006-11-21 08:08:57 51°18.21 2°52.691 5.1 270 10.4 99650 69
2006-11-21 08:09:01 51°18.217 2°52.708 4 81 10.4 99650 69
2006-11-21 08:09:05 51°18.224 2°52.725 4.1 269 10.4 99650 69
2006-11-21 08:09:11 51°18.237 2°52.749 4.8 74 10.4 99650 70
2006-11-21 08:09:17 51°18.246 2°52.777 4.3 38 10.4 99660 70
2006-11-21 08:09:22 51°18.258 2°52.795 5.2 78 10.4 99660 70
2006-11-21 08:09:27 51°18.266 2°52.817 4.3 32 10.4 99670 70
2006-11-21 08:09:31 51°18.275 2°52.832 3.6 279 10.4 99670 70
2006-11-21 08:09:37 51°18.287 2°52.858 2.8 257 10.4 99670 70
2006-11-21 08:09:41 51°18.296 2°52.873 3.4 285 10.4 99670 70
2006-11-21 08:09:47 51°18.309 2°52.897 5.4 259 10.4 99670 70
2006-11-21 08:09:51 51°18.318 2°52.913 4.3 263 10.4 99660 70
2006-11-21 08:09:57 51°18.33 2°52.936 4.5 30 10.4 99660 70
2006-11-21 08:10:01 51°18.339 2°52.951 3.2 282 10.5 99660 70
2006-11-21 08:10:07 51°18.351 2°52.977 4 265 10.5 99660 70
2006-11-21 08:10:11 51°18.361 2°52.991 4.6 287 10.5 99650 70
2006-11-21 08:10:17 51°18.374 2°53.015 5.7 266 10.5 99650 70
2006-11-21 08:10:21 51°18.382 2°53.032 5 279 10.5 99660 70
2006-11-21 08:10:27 51°18.397 2°53.054 6.8 328 10.5 99660 71
2006-11-21 08:10:32 51°18.406 2°53.075 4 286 10.5 99660 71
2006-11-21 08:10:36 51°18.414 2°53.092 6.6 263 10.5 99660 71
2006-11-21 08:10:41 51°18.426 2°53.112 5.4 284 10.5 99660 71
2006-11-21 08:10:47 51°18.439 2°53.134 6.4 269 10.5 99650 71
2006-11-21 08:10:51 51°18.448 2°53.149 5.4 285 10.5 99650 71
2006-11-21 08:10:57 51°18.46 2°53.175 6 268 10.5 99660 71
2006-11-21 08:11:01 51°18.471 2°53.188 5.4 279 10.5 99660 71
2006-11-21 08:11:07 51°18.484 2°53.212 5.8 42 10.5 99660 71
2006-11-21 08:11:12 51°18.497 2°53.229 6.7 278 10.5 99650 71
2006-11-21 08:11:17 51°18.507 2°53.252 5.1 269 10.5 99650 71
2006-11-21 08:11:21 51°18.518 2°53.264 4.5 73 10.5 99660 71
2006-11-21 08:11:27 51°18.53 2°53.289 4.6 265 10.5 99660 71
2006-11-21 08:11:31 51°18.541 2°53.302 4.6 280 10.5 99650 70
2006-11-21 08:11:37 51°18.555 2°53.326 5.7 267 10.5 99660 70
2006-11-21 08:11:41 51°18.566 2°53.338 5 279 10.5 99660 70
2006-11-21 08:11:47 51°18.579 2°53.362 4.5 261 10.5 99660 70
2006-11-21 08:11:51 51°18.589 2°53.376 4.1 -999 10.5 99670 70
2006-11-21 08:11:57 51°18.604 2°53.399 5.3 269 10.5 99660 70
2006-11-21 08:12:01 51°18.613 2°53.414 4.2 281 10.5 99660 70
2006-11-21 08:12:06 51°18.627 2°53.432 3.5 267 10.5 99660 71
2006-11-21 08:12:12 51°18.642 2°53.455 4.9 280 10.5 99660 71
2006-11-21 08:12:16 51°18.652 2°53.47 6.6 259 10.5 99660 71
2006-11-21 08:12:21 51°18.666 2°53.486 4.8 279 10.5 99650 71
2006-11-21 08:12:27 51°18.68 2°53.509 5.5 265 10.5 99650 71
2006-11-21 08:12:31 51°18.69 2°53.523 5 283 10.5 99650 71
2006-11-21 08:12:36 51°18.702 2°53.544 4.4 259 10.5 99650 71
2006-11-21 08:12:42 51°18.717 2°53.565 4.4 282 10.5 99650 71
2006-11-21 08:12:47 51°18.727 2°53.585 5.1 266 10.6 99650 72
2006-11-21 08:12:51 51°18.737 2°53.6 5.4 280 10.6 99650 72
2006-11-21 08:12:56 51°18.75 2°53.618 5.9 270 10.5 99650 71
2006-11-21 08:13:01 51°18.762 2°53.638 5.6 282 10.5 99650 71
2006-11-21 08:13:07 51°18.776 2°53.66 5.4 270 10.5 99660 71
2006-11-21 08:13:12 51°18.788 2°53.679 5.6 279 10.5 99660 71
2006-11-21 08:13:17 51°18.8 2°53.699 5.3 266 10.5 99660 71
2006-11-21 08:13:21 51°18.81 2°53.714 4.3 281 10.5 99650 71
2006-11-21 08:13:27 51°18.825 2°53.734 4 35 10.5 99650 71
2006-11-21 08:13:32 51°18.837 2°53.754 6.6 279 10.5 99650 71
2006-11-21 08:13:37 51°18.85 2°53.769 6.7 268 10.5 99660 71
2006-11-21 08:13:41 51°18.858 2°53.788 5.5 280 10.5 99660 71
2006-11-21 08:13:47 51°18.875 2°53.804 6.4 269 10.5 99650 71
2006-11-21 08:13:51 51°18.884 2°53.82 5.9 -999 10.5 99650 71
2006-11-21 08:13:57 51°18.9 2°53.839 7.7 268 10.5 99650 71
2006-11-21 08:14:01 51°18.91 2°53.853 5.4 283 10.5 99650 71
2006-11-21 08:14:05 51°18.92 2°53.868 6.3 263 10.6 99650 72
2006-11-21 08:14:11 51°18.936 2°53.888 5.4 287 10.6 99650 72
2006-11-21 08:14:17 51°18.951 2°53.909 4.1 261 10.6 99660 72
2006-11-21 08:14:21 51°18.96 2°53.922 5.2 279 10.6 99660 72
2006-11-21 08:14:27 51°18.975 2°53.945 4.1 263 10.6 99660 72
2006-11-21 08:14:31 51°18.985 2°53.958 6.3 286 10.6 99660 72
2006-11-21 08:14:37 51°18.998 2°53.982 4 264 10.6 99660 72
2006-11-21 08:14:42 51°19.011 2°53.999 5.9 286 10.6 99660 72
2006-11-21 08:14:47 51°19.023 2°54.018 5.1 35 10.6 99660 72
2006-11-21 08:14:51 51°19.033 2°54.031 4.3 280 10.6 99660 72
2006-11-21 08:14:57 51°19.047 2°54.053 4.5 266 10.6 99660 72
2006-11-21 08:15:01 51°19.057 2°54.066 4.6 282 10.6 99660 72
2006-11-21 08:15:07 51°19.071 2°54.09 8.4 260 10.6 99660 72
2006-11-21 08:15:11 51°19.083 2°54.1 3.9 285 10.6 99660 72
2006-11-21 08:15:17 51°19.097 2°54.124 5.7 264 10.6 99660 72
2006-11-21 08:15:21 51°19.107 2°54.136 4.3 80 10.6 99650 72
2006-11-21 08:15:27 51°19.121 2°54.16 7.2 272 10.6 99650 72
2006-11-21 08:15:32 51°19.133 2°54.178 5.6 8 10.6 99670 72
2006-11-21 08:15:37 51°19.144 2°54.198 5.9 260 10.6 99670 72
2006-11-21 08:15:42 51°19.155 2°54.218 3.5 280 10.6 99670 72
2006-11-21 08:15:47 51°19.169 2°54.234 8.1 261 10.6 99670 72
2006-11-21 08:15:52 51°19.18 2°54.253 5.2 -999 10.6 99660 72
2006-11-21 08:15:57 51°19.192 2°54.271 3.9 266 10.6 99660 72
2006-11-21 08:16:01 51°19.203 2°54.283 5 285 10.6 99660 72
2006-11-21 08:16:07 51°19.218 2°54.305 5.3 262 10.6 99660 72
2006-11-21 08:16:12 51°19.231 2°54.321 6.8 278 10.6 99660 72
2006-11-21 08:16:17 51°19.243 2°54.34 7.7 260 10.6 99650 73
2006-11-21 08:16:21 51°19.254 2°54.352 4.2 285 10.6 99650 73
2006-11-21 08:16:27 51°19.267 2°54.378 9.3 260 10.6 99660 73
2006-11-21 08:16:31 51°19.279 2°54.388 4.3 279 10.6 99660 73
2006-11-21 08:16:37 51°19.291 2°54.413 7.7 255 10.6 99660 73
2006-11-21 08:16:41 51°19.302 2°54.424 7.1 284 10.6 99660 73
2006-11-21 08:16:47 51°19.317 2°54.446 3.2 263 10.6 99660 73
2006-11-21 08:16:52 51°19.33 2°54.462 7.3 258 10.6 99660 73
2006-11-21 08:16:56 51°19.341 2°54.475 4.2 264 10.6 99660 73
2006-11-21 08:17:01 51°19.352 2°54.494 7.8 284 10.6 99660 73
2006-11-21 08:17:07 51°19.366 2°54.516 6.1 251 10.6 99660 73
2006-11-21 08:17:11 51°19.376 2°54.531 5 287 10.6 99650 73
2006-11-21 08:17:17 51°19.39 2°54.552 5 262 10.6 99650 73
2006-11-21 08:17:21 51°19.4 2°54.567 9.5 282 10.6 99650 73
2006-11-21 08:17:27 51°19.415 2°54.588 6.1 259 10.6 99650 73
2006-11-21 08:17:32 51°19.427 2°54.605 6.8 278 10.6 99650 73
2006-11-21 08:17:36 51°19.437 2°54.619 7.1 260 10.6 99650 73
2006-11-21 08:17:41 51°19.449 2°54.638 2.6 280 10.6 99650 73
2006-11-21 08:17:47 51°19.463 2°54.658 4.5 267 10.6 99650 73
2006-11-21 08:17:52 51°19.475 2°54.676 8.7 -999 10.6 99650 73
2006-11-21 08:17:57 51°19.487 2°54.694 6.3 261 10.6 99640 73
2006-11-21 08:18:01 51°19.496 2°54.709 7.6 284 10.6 99640 73
2006-11-21 08:18:07 51°19.511 2°54.73 7.8 258 10.6 99640 73
2006-11-21 08:18:11 51°19.521 2°54.745 6.6 284 10.6 99650 73
2006-11-21 08:18:16 51°19.532 2°54.765 12.5 259 10.6 99650 73
2006-11-21 08:18:21 51°19.545 2°54.781 6 285 10.6 99650 73
2006-11-21 08:18:27 51°19.559 2°54.804 10 260 10.6 99640 73
2006-11-21 08:18:31 51°19.57 2°54.816 6.3 280 10.6 99640 73
2006-11-21 08:18:37 51°19.583 2°54.84 8.5 260 10.6 99650 73
2006-11-21 08:18:41 51°19.594 2°54.852 7.3 279 10.6 99650 73
2006-11-21 08:18:45 51°19.604 2°54.866 10.5 261 10.6 99660 72
2006-11-21 08:18:51 51°19.617 2°54.888 7.8 284 10.6 99660 72
2006-11-21 08:18:57 51°19.633 2°54.907 9.6 259 10.6 99650 72
2006-11-21 08:19:01 51°19.643 2°54.921 6.7 283 10.6 99650 72
2006-11-21 08:19:07 51°19.658 2°54.944 10.6 260 10.6 99650 72
2006-11-21 08:19:12 51°19.671 2°54.96 6.7 280 10.6 99650 72
2006-11-21 08:19:17 51°19.682 2°54.979 9 259 10.6 99650 72
2006-11-21 08:19:21 51°19.692 2°54.992 5.9 286 10.6 99640 72
2006-11-21 08:19:27 51°19.707 2°55.013 9.3 256 10.6 99650 72
2006-11-21 08:19:31 51°19.717 2°55.028 8.9 287 10.6 99650 72
2006-11-21 08:19:37 51°19.734 2°55.048 6.4 262 10.6 99650 72
2006-11-21 08:19:41 51°19.745 2°55.062 7.1 280 10.5 99650 71
2006-11-21 08:19:47 51°19.759 2°55.082 7.3 256 10.5 99640 71
2006-11-21 08:19:52 51°19.772 2°55.1 8.8 -999 10.5 99640 71
2006-11-21 08:19:57 51°19.785 2°55.118 4.1 267 10.5 99640 71
2006-11-21 08:20:01 51°19.794 2°55.132 7.3 280 10.5 99640 71
2006-11-21 08:20:07 51°19.809 2°55.153 5.6 267 10.5 99640 71
2006-11-21 08:20:12 51°19.822 2°55.169 8.8 281 10.5 99650 71
2006-11-21 08:20:17 51°19.834 2°55.188 6.4 259 10.5 99630 71
2006-11-21 08:20:21 51°19.845 2°55.2 6 287 10.5 99630 71
2006-11-21 08:20:27 51°19.86 2°55.222 10 257 10.5 99630 71
2006-11-21 08:20:32 51°19.873 2°55.238 6.6 283 10.5 99640 71
2006-11-21 08:20:36 51°19.882 2°55.254 9.2 251 10.5 99650 71
2006-11-21 08:20:42 51°19.899 2°55.271 8.4 280 10.5 99650 71
2006-11-21 08:20:47 51°19.911 2°55.289 8.9 258 10.5 99650 71
2006-11-21 08:20:51 51°19.921 2°55.305 9.7 279 10.6 99650 71
2006-11-21 08:20:57 51°19.938 2°55.323 7 258 10.6 99650 71
2006-11-21 08:21:01 51°19.946 2°55.34 7.9 280 10.6 99650 71
2006-11-21 08:21:07 51°19.962 2°55.36 7.5 260 10.6 99650 72
2006-11-21 08:21:11 51°19.97 2°55.376 5.6 279 10.6 99650 72
2006-11-21 08:21:16 51°19.981 2°55.396 6.5 260 10.6 99650 72
2006-11-21 08:21:21 51°19.992 2°55.416 8.4 286 10.6 99630 72
2006-11-21 08:21:27 51°20.006 2°55.441 7.4 258 10.6 99640 72
2006-11-21 08:21:32 51°20.017 2°55.461 5.6 283 10.6 99640 72
2006-11-21 08:21:37 51°20.026 2°55.483 6.2 257 10.6 99640 72
2006-11-21 08:21:42 51°20.039 2°55.503 8.7 285 10.6 99640 72
2006-11-21 08:21:47 51°20.05 2°55.523 6.1 259 10.6 99650 72
2006-11-21 08:21:51 51°20.059 2°55.539 5.2 -999 10.6 99650 72
2006-11-21 08:21:57 51°20.07 2°55.566 8.5 257 10.6 99650 72
2006-11-21 08:22:01 51°20.08 2°55.582 4.7 281 10.6 99650 72
2006-11-21 08:22:07 51°20.091 2°55.608 6.1 258 10.6 99640 72
2006-11-21 08:22:12 51°20.102 2°55.629 7.7 281 10.6 99640 72
2006-11-21 08:22:16 51°20.111 2°55.645 6.5 260 10.6 99650 72
2006-11-21 08:22:21 51°20.121 2°55.665 6.8 281 10.6 99650 72
2006-11-21 08:22:27 51°20.134 2°55.691 7.1 263 10.6 99650 72
2006-11-21 08:22:32 51°20.145 2°55.712 5.4 280 10.6 99650 72
2006-11-21 08:22:36 51°20.153 2°55.729 6.1 262 10.6 99640 72
2006-11-21 08:22:41 51°20.164 2°55.749 4.6 279 10.6 99640 72
2006-11-21 08:22:46 51°20.173 2°55.771 7 262 10.5 99650 71
2006-11-21 08:22:52 51°20.186 2°55.796 7.9 285 10.5 99650 71
2006-11-21 08:22:57 51°20.197 2°55.817 8.4 259 10.5 99650 71
2006-11-21 08:23:02 51°20.207 2°55.84 7 279 10.5 99650 71
2006-11-21 08:23:07 51°20.217 2°55.861 4.8 262 10.5 99650 71
2006-11-21 08:23:12 51°20.227 2°55.884 8.3 284 10.5 99640 71
2006-11-21 08:23:17 51°20.238 2°55.903 5.3 262 10.5 99650 70
2006-11-21 08:23:22 51°20.248 2°55.927 9.5 282 10.5 99650 70
2006-11-21 08:23:27 51°20.262 2°55.942 8.2 261 10.5 99640 71
2006-11-21 08:23:32 51°20.271 2°55.964 6.2 280 10.5 99640 71
2006-11-21 08:23:37 51°20.282 2°55.983 9.1 263 10.5 99630 71
2006-11-21 08:23:41 51°20.291 2°55.998 6.9 285 10.5 99630 71
2006-11-21 08:23:47 51°20.302 2°56.026 6 258 10.5 99630 70
2006-11-21 08:23:51 51°20.312 2°56.043 6.3 -999 10.5 99630 70
2006-11-21 08:23:57 51°20.323 2°56.068 7.2 268 10.5 99630 70
2006-11-21 08:24:01 51°20.328 2°56.088 5.8 287 10.5 99650 70
2006-11-21 08:24:07 51°20.338 2°56.117 7.3 270 10.5 99650 70
2006-11-21 08:24:12 51°20.346 2°56.142 6.2 74 10.5 99660 69
2006-11-21 08:24:16 51°20.351 2°56.162 5.6 30 10.5 99640 70
2006-11-21 08:24:21 51°20.358 2°56.187 4.8 83 10.5 99640 70
2006-11-21 08:24:26 51°20.363 2°56.214 5.6 39 10.5 99650 70
2006-11-21 08:24:32 51°20.369 2°56.246 5.9 73 10.5 99650 70
2006-11-21 08:24:37 51°20.374 2°56.273 5.5 33 10.5 99650 69
2006-11-21 08:24:41 51°20.376 2°56.293 4.5 75 10.5 99650 69
2006-11-21 08:24:46 51°20.378 2°56.319 6.1 37 10.5 99650 69
2006-11-21 08:24:52 51°20.382 2°56.352 4.9 79 10.5 99650 69
2006-11-21 08:24:57 51°20.384 2°56.379 4.7 33 10.5 99650 69
2006-11-21 08:25:01 51°20.386 2°56.401 6.1 78 10.5 99650 69
2006-11-21 08:25:07 51°20.392 2°56.433 4.1 32 10.5 99650 69
2006-11-21 08:25:12 51°20.394 2°56.46 3.6 80 10.5 99660 68
2006-11-21 08:25:16 51°20.396 2°56.482 4.9 30 10.5 99650 68
2006-11-21 08:25:22 51°20.4 2°56.514 4.8 81 10.5 99650 68
2006-11-21 08:25:27 51°20.405 2°56.541 3.9 38 10.5 99650 68
2006-11-21 08:25:31 51°20.408 2°56.561 4.9 78 10.5 99650 68
2006-11-21 08:25:37 51°20.412 2°56.593 3.9 36 10.5 99650 68
2006-11-21 08:25:41 51°20.416 2°56.615 3.6 79 10.5 99650 68
2006-11-21 08:25:47 51°20.42 2°56.648 3.4 36 10.5 99650 68
2006-11-21 08:25:51 51°20.424 2°56.67 4 -999 10.5 99650 68
2006-11-21 08:25:57 51°20.43 2°56.701 4.5 38 10.5 99650 68
2006-11-21 08:26:01 51°20.433 2°56.721 4.6 80 10.5 99650 68
2006-11-21 08:26:07 51°20.437 2°56.755 5.3 38 10.5 99660 69
2006-11-21 08:26:11 51°20.442 2°56.777 5.8 74 10.5 99660 69
2006-11-21 08:26:17 51°20.449 2°56.808 6.2 35 10.5 99660 69
2006-11-21 08:26:21 51°20.452 2°56.829 5.4 75 10.5 99650 69
2006-11-21 08:26:27 51°20.459 2°56.861 5.7 23 10.5 99660 69
2006-11-21 08:26:31 51°20.463 2°56.881 6.8 77 10.5 99660 69
2006-11-21 08:26:37 51°20.469 2°56.912 6.7 31 10.5 99660 69
2006-11-21 08:26:41 51°20.472 2°56.934 5.2 80 10.5 99650 69
2006-11-21 08:26:47 51°20.479 2°56.965 4.5 36 10.5 99650 69
2006-11-21 08:26:52 51°20.48 2°56.992 4.1 78 10.5 99650 69
2006-11-21 08:26:56 51°20.482 2°57.015 3.5 37 10.5 99650 69
2006-11-21 08:27:01 51°20.483 2°57.043 3.8 79 10.5 99650 69
2006-11-21 08:27:07 51°20.484 2°57.075 3.5 30 10.5 99650 69
2006-11-21 08:27:12 51°20.482 2°57.1 3.2 80 10.5 99650 69
2006-11-21 08:27:17 51°20.482 2°57.129 1.6 38 10.6 99650 70
2006-11-21 08:27:21 51°20.482 2°57.153 2.2 292 10.6 99650 70
2006-11-21 08:27:26 51°20.482 2°57.182 1.7 34 10.6 99650 70
2006-11-21 08:27:31 51°20.481 2°57.209 1.7 83 10.6 99650 70
2006-11-21 08:27:37 51°20.48 2°57.242 3 38 10.6 99660 71
2006-11-21 08:27:41 51°20.479 2°57.265 3 76 10.6 99660 71
2006-11-21 08:27:47 51°20.479 2°57.299 2 30 10.6 99660 71
2006-11-21 08:27:51 51°20.477 2°57.322 2.1 -999 10.6 99650 71
2006-11-21 08:27:57 51°20.477 2°57.356 1.2 32 10.6 99650 71
2006-11-21 08:28:01 51°20.475 2°57.379 1.4 73 10.6 99650 71
2006-11-21 08:28:07 51°20.475 2°57.415 2.3 37 10.7 99650 71
2006-11-21 08:28:11 51°20.476 2°57.438 2.9 80 10.7 99650 71
2006-11-21 08:28:17 51°20.476 2°57.471 4 35 10.7 99650 71
2006-11-21 08:28:21 51°20.478 2°57.492 3.1 80 10.7 99650 72
2006-11-21 08:28:27 51°20.478 2°57.525 2.6 36 10.7 99650 72
2006-11-21 08:28:31 51°20.48 2°57.548 4 79 10.7 99660 72
2006-11-21 08:28:37 51°20.481 2°57.584 3.3 37 10.7 99660 72
2006-11-21 08:28:41 51°20.483 2°57.608 4.9 74 10.7 99660 72
2006-11-21 08:28:47 51°20.484 2°57.641 4.1 37 10.7 99660 72
2006-11-21 08:28:52 51°20.484 2°57.668 3.4 74 10.7 99660 72
2006-11-21 08:28:57 51°20.483 2°57.696 2.2 36 10.7 99660 72
2006-11-21 08:29:01 51°20.483 2°57.72 2.7 78 10.7 99660 72
2006-11-21 08:29:07 51°20.482 2°57.755 2 33 10.6 99650 71
2006-11-21 08:29:12 51°20.481 2°57.785 1 82 10.6 99650 71
2006-11-21 08:29:17 51°20.482 2°57.816 2.8 39 10.6 99650 70
2006-11-21 08:29:22 51°20.482 2°57.845 2.1 75 10.6 99650 70
2006-11-21 08:29:27 51°20.483 2°57.873 3.4 33 10.6 99650 70
2006-11-21 08:29:32 51°20.483 2°57.9 3.7 76 10.6 99650 71
2006-11-21 08:29:37 51°20.484 2°57.928 2.7 36 10.7 99650 71
2006-11-21 08:29:41 51°20.484 2°57.951 2.2 81 10.7 99650 71
2006-11-21 08:29:46 51°20.483 2°57.98 1.7 32 10.7 99660 71
2006-11-21 08:29:52 51°20.485 2°58.016 1.6 40 10.7 99660 71
2006-11-21 08:29:57 51°20.486 2°58.044 2.2 30 10.7 99660 71
2006-11-21 08:30:01 51°20.489 2°58.065 3 76 10.7 99660 71
2006-11-21 08:30:07 51°20.49 2°58.097 2.1 31 10.7 99660 71
2006-11-21 08:30:12 51°20.496 2°58.125 3.4 79 10.7 99660 71
2006-11-21 08:30:17 51°20.501 2°58.15 4.9 34 10.7 99660 71
2006-11-21 08:30:21 51°20.502 2°58.171 3.6 290 10.7 99650 71
2006-11-21 08:30:26 51°20.508 2°58.2 3.5 268 10.7 99650 71
2006-11-21 08:30:31 51°20.515 2°58.226 4 86 10.7 99650 71
2006-11-21 08:30:37 51°20.521 2°58.257 4.3 40 10.7 99650 71
2006-11-21 08:30:42 51°20.525 2°58.283 4.1 81 10.7 99650 71
2006-11-21 08:30:47 51°20.53 2°58.31 3.1 28 10.7 99650 71
2006-11-21 08:30:52 51°20.536 2°58.336 4.1 79 10.7 99650 71
2006-11-21 08:30:57 51°20.542 2°58.362 6.7 33 10.7 99650 71
2006-11-21 08:31:02 51°20.549 2°58.386 5.9 74 10.7 99650 71
2006-11-21 08:31:07 51°20.555 2°58.412 2.8 256 10.7 99660 71
2006-11-21 08:31:11 51°20.563 2°58.431 3.7 286 10.7 99660 71
2006-11-21 08:31:17 51°20.572 2°58.461 4.4 267 10.7 99650 71
2006-11-21 08:31:21 51°20.579 2°58.48 3.3 285 10.7 99650 71
2006-11-21 08:31:27 51°20.588 2°58.511 4.2 263 10.7 99650 71
2006-11-21 08:31:32 51°20.598 2°58.533 6.7 285 10.6 99650 71
2006-11-21 08:31:37 51°20.605 2°58.557 4.8 265 10.6 99650 71
2006-11-21 08:31:41 51°20.611 2°58.577 5.3 280 10.6 99650 71
2006-11-21 08:31:47 51°20.623 2°58.605 5.9 262 10.6 99650 71
2006-11-21 08:31:52 51°20.633 2°58.626 10.2 -999 10.6 99650 71
2006-11-21 08:31:57 51°20.644 2°58.647 9.6 260 10.6 99650 71
2006-11-21 08:32:02 51°20.656 2°58.667 12 284 10.6 99650 71
2006-11-21 08:32:07 51°20.67 2°58.685 12.8 257 10.6 99640 71
2006-11-21 08:32:11 51°20.682 2°58.696 10.2 279 10.6 99640 71
2006-11-21 08:32:17 51°20.698 2°58.716 14 256 10.6 99650 71
2006-11-21 08:32:21 51°20.71 2°58.728 11.9 286 10.6 99650 71
2006-11-21 08:32:26 51°20.725 2°58.745 11.7 254 10.6 99640 71
2006-11-21 08:32:32 51°20.745 2°58.757 13.4 282 10.6 99640 71
2006-11-21 08:32:37 51°20.759 2°58.774 12 256 10.6 99630 70
2006-11-21 08:32:41 51°20.772 2°58.782 9.7 279 10.6 99630 70
2006-11-21 08:32:47 51°20.79 2°58.8 12.2 251 10.6 99630 71
2006-11-21 08:32:52 51°20.806 2°58.812 11.9 287 10.6 99630 71
2006-11-21 08:32:57 51°20.821 2°58.826 10.4 250 10.6 99630 71
2006-11-21 08:33:01 51°20.833 2°58.837 11.8 282 10.6 99630 71
2006-11-21 08:33:07 51°20.851 2°58.854 10.1 256 10.6 99630 71
2006-11-21 08:33:12 51°20.867 2°58.868 9.4 285 10.6 99630 71
2006-11-21 08:33:17 51°20.882 2°58.881 8.1 249 10.6 99630 71
2006-11-21 08:33:21 51°20.894 2°58.893 12.4 286 10.6 99630 71
2006-11-21 08:33:27 51°20.912 2°58.91 9.6 254 10.6 99620 71
2006-11-21 08:33:32 51°20.927 2°58.923 10.7 279 10.6 99620 71
2006-11-21 08:33:36 51°20.94 2°58.932 10.4 246 10.5 99630 71
2006-11-21 08:33:41 51°20.956 2°58.943 10.7 281 10.5 99630 71
2006-11-21 08:33:47 51°20.976 2°58.952 11 249 10.5 99630 71
2006-11-21 08:33:52 51°20.994 2°58.957 10.5 282 10.5 99630 71
2006-11-21 08:33:56 51°21.007 2°58.961 11.6 247 10.5 99630 71
2006-11-21 08:34:01 51°21.025 2°58.962 11.5 282 10.5 99630 71
2006-11-21 08:34:07 51°21.046 2°58.964 12.3 245 10.5 99630 71
2006-11-21 08:34:11 51°21.061 2°58.965 12.5 286 10.5 99630 71
2006-11-21 08:34:17 51°21.082 2°58.962 12.4 241 10.5 99630 71
2006-11-21 08:34:21 51°21.097 2°58.962 14.1 286 10.5 99630 71
2006-11-21 08:34:26 51°21.115 2°58.959 12.9 241 10.5 99630 72
2006-11-21 08:34:31 51°21.133 2°58.958 14 286 10.5 99630 72
2006-11-21 08:34:37 51°21.154 2°58.954 12.9 33 10.5 99600 72
2006-11-21 08:34:41 51°21.169 2°58.953 15.7 282 10.5 99600 72
2006-11-21 08:34:46 51°21.187 2°58.947 12.4 238 10.5 99620 72
2006-11-21 08:34:52 51°21.208 2°58.943 13 278 10.5 99620 72
2006-11-21 08:34:57 51°21.226 2°58.938 15.4 237 10.5 99610 72
2006-11-21 08:35:01 51°21.24 2°58.935 13.7 280 10.5 99610 72
2006-11-21 08:35:07 51°21.262 2°58.928 14.6 239 10.5 99610 72
2006-11-21 08:35:11 51°21.276 2°58.924 14.8 282 10.5 99590 72
2006-11-21 08:35:17 51°21.298 2°58.918 13.3 235 10.5 99590 72
2006-11-21 08:35:22 51°21.316 2°58.912 13.9 282 10.5 99590 72
2006-11-21 08:35:27 51°21.333 2°58.905 15.2 239 10.5 99600 72
2006-11-21 08:35:32 51°21.351 2°58.898 15.7 282 10.5 99600 72
2006-11-21 08:35:37 51°21.369 2°58.889 15 32 10.5 99590 72
2006-11-21 08:35:42 51°21.386 2°58.881 17.2 284 10.5 99590 72
2006-11-21 08:35:47 51°21.404 2°58.872 14.9 32 10.5 99590 72
2006-11-21 08:35:51 51°21.418 2°58.865 17.2 282 10.5 99590 72
2006-11-21 08:35:57 51°21.439 2°58.854 15.1 238 10.5 99590 72
2006-11-21 08:36:01 51°21.453 2°58.846 14.9 280 10.5 99590 72
2006-11-21 08:36:05 51°21.466 2°58.838 16.9 240 10.5 99580 72
2006-11-21 08:36:12 51°21.489 2°58.826 16.1 281 10.5 99580 72
2006-11-21 08:36:17 51°21.505 2°58.818 16.3 241 10.5 99580 72
2006-11-21 08:36:22 51°21.519 2°58.809 13.2 285 10.4 99570 72
2006-11-21 08:36:27 51°21.534 2°58.801 12.5 237 10.4 99570 72
2006-11-21 08:36:32 51°21.548 2°58.791 15.5 278 10.5 99590 72
2006-11-21 08:36:37 51°21.562 2°58.784 12.5 241 10.4 99590 72
2006-11-21 08:36:42 51°21.576 2°58.777 13.1 278 10.4 99590 72
2006-11-21 08:36:47 51°21.589 2°58.769 13.4 242 10.4 99590 72
2006-11-21 08:36:51 51°21.6 2°58.764 13.2 281 10.5 99600 72
2006-11-21 08:36:57 51°21.616 2°58.756 12.2 236 10.5 99590 72
2006-11-21 08:37:02 51°21.626 2°58.749 16.1 283 10.5 99590 72
2006-11-21 08:37:07 51°21.639 2°58.742 15.3 238 10.5 99600 72
2006-11-21 08:37:12 51°21.651 2°58.732 15.5 278 10.5 99600 72
2006-11-21 08:37:17 51°21.662 2°58.722 14.1 239 10.5 99600 72
2006-11-21 08:37:23 51°21.676 2°58.711 16.4 281 10.5 99610 73
2006-11-21 08:37:27 51°21.685 2°58.703 14.1 238 10.5 99590 73
2006-11-21 08:37:32 51°21.696 2°58.694 15.5 283 10.5 99590 73
2006-11-21 08:37:37 51°21.707 2°58.684 15.6 32 10.5 99600 73
2006-11-21 08:37:42 51°21.718 2°58.676 13.9 278 10.5 99600 73
2006-11-21 08:37:47 51°21.728 2°58.665 13.7 238 10.5 99580 72
2006-11-21 08:37:51 51°21.737 2°58.658 13 283 10.5 99580 72
2006-11-21 08:37:56 51°21.746 2°58.649 11.7 30 10.4 99570 72
2006-11-21 08:38:02 51°21.759 2°58.64 14.2 283 10.4 99570 72
2006-11-21 08:38:06 51°21.767 2°58.634 15.3 242 10.4 99580 72
2006-11-21 08:38:13 51°21.784 2°58.628 11 287 10.4 99580 72
2006-11-21 08:38:17 51°21.793 2°58.626 12.6 243 10.4 99620 71
2006-11-21 08:38:22 51°21.806 2°58.622 15 284 10.4 99620 71
2006-11-21 08:38:28 51°21.82 2°58.617 13.5 246 10.4 99590 71
2006-11-21 08:38:31 51°21.828 2°58.614 12.4 282 10.4 99590 71
2006-11-21 08:38:36 51°21.84 2°58.608 13.6 244 10.4 99620 71
2006-11-21 08:38:42 51°21.855 2°58.601 12.7 282 10.4 99620 71
2006-11-21 08:38:47 51°21.868 2°58.596 12.9 245 10.4 99600 70
2006-11-21 08:38:52 51°21.88 2°58.59 12.2 279 10.4 99600 70
2006-11-21 08:38:56 51°21.891 2°58.589 13.9 242 10.4 99610 70
2006-11-21 08:39:02 51°21.907 2°58.586 11.8 279 10.4 99610 70
2006-11-21 08:39:06 51°21.917 2°58.586 10.3 241 10.4 99610 70
2006-11-21 08:39:12 51°21.933 2°58.584 10.7 282 10.4 99610 70
2006-11-21 08:39:17 51°21.945 2°58.583 11.3 238 10.4 99620 70
2006-11-21 08:39:22 51°21.958 2°58.577 15.1 283 10.4 99620 70
2006-11-21 08:39:27 51°21.969 2°58.568 15.2 34 10.4 99620 70
2006-11-21 08:39:32 51°21.979 2°58.558 15.6 284 10.4 99620 70
2006-11-21 08:39:37 51°21.987 2°58.543 14.1 35 10.4 99620 70
2006-11-21 08:39:42 51°21.994 2°58.529 15 286 10.4 99620 71
2006-11-21 08:39:46 51°21.999 2°58.516 16.8 316 10.4 99600 71
2006-11-21 08:39:52 51°22.004 2°58.495 13.8 283 10.4 99600 71
2006-11-21 08:39:57 51°22.006 2°58.476 14.7 323 10.5 99590 71
2006-11-21 08:40:01 51°22.007 2°58.461 14 286 10.5 99590 71
2006-11-21 08:40:06 51°22.006 2°58.443 14.1 330 10.4 99600 71
2006-11-21 08:40:12 51°22.002 2°58.421 14.6 282 10.4 99600 71
2006-11-21 08:40:17 51°21.997 2°58.402 14.1 338 10.5 99610 71
2006-11-21 08:40:22 51°21.991 2°58.387 13.4 280 10.5 99610 71
2006-11-21 08:40:26 51°21.985 2°58.376 13.1 345 10.5 99600 71
2006-11-21 08:40:32 51°21.975 2°58.364 14.3 278 10.5 99600 71
2006-11-21 08:40:37 51°21.965 2°58.355 14.8 357 10.5 99620 72
2006-11-21 08:40:42 51°21.954 2°58.348 14.3 1 10.5 99620 72
2006-11-21 08:40:46 51°21.945 2°58.344 11.9 3 10.5 99640 72
2006-11-21 08:40:52 51°21.931 2°58.339 12.3 3 10.5 99640 72
2006-11-21 08:40:57 51°21.921 2°58.336 12.3 5 10.4 99610 70
2006-11-21 08:41:02 51°21.91 2°58.333 10 4 10.4 99610 70
2006-11-21 08:41:07 51°21.901 2°58.33 12 360 10.4 99590 70
2006-11-21 08:41:12 51°21.891 2°58.326 13.1 1 10.4 99590 70
2006-11-21 08:41:17 51°21.882 2°58.322 10.9 359 10.4 99610 71
2006-11-21 08:41:22 51°21.874 2°58.316 10 1 10.4 99610 71
2006-11-21 08:41:27 51°21.866 2°58.31 11.2 358 10.4 99610 71
2006-11-21 08:41:32 51°21.859 2°58.305 11 358 10.4 99610 71
2006-11-21 08:41:37 51°21.852 2°58.299 11.1 356 10.4 99610 71
2006-11-21 08:41:42 51°21.845 2°58.293 12.3 354 10.4 99610 71
2006-11-21 08:41:46 51°21.84 2°58.288 12.2 358 10.5 99620 71
2006-11-21 08:41:52 51°21.833 2°58.28 13.9 355 10.5 99620 71
2006-11-21 08:41:57 51°21.827 2°58.273 11.7 351 10.5 99620 72
2006-11-21 08:42:01 51°21.823 2°58.268 10.6 353 10.5 99620 72
2006-11-21 08:42:06 51°21.818 2°58.262 11.5 352 10.5 99620 72
2006-11-21 08:42:12 51°21.812 2°58.257 12.4 351 10.5 99620 72
2006-11-21 08:42:17 51°21.807 2°58.251 13.3 354 10.4 99610 71
2006-11-21 08:42:22 51°21.803 2°58.246 11.8 354 10.4 99610 71
2006-11-21 08:42:27 51°21.799 2°58.242 12.3 354 10.4 99620 72
2006-11-21 08:42:33 51°21.794 2°58.237 12.4 350 10.4 99620 72
2006-11-21 08:42:37 51°21.792 2°58.233 12.1 352 10.4 99610 71
2006-11-21 08:42:42 51°21.788 2°58.23 11.4 352 10.4 99610 71
2006-11-21 08:42:47 51°21.785 2°58.227 10.7 351 10.4 99620 70
2006-11-21 08:42:52 51°21.782 2°58.224 9.1 349 10.4 99620 70
2006-11-21 08:42:57 51°21.78 2°58.222 9.3 347 10.4 99610 70
2006-11-21 08:43:02 51°21.778 2°58.221 8.9 349 10.4 99610 70
2006-11-21 08:43:07 51°21.776 2°58.221 9.2 357 10.4 99610 70
2006-11-21 08:43:12 51°21.775 2°58.22 8.4 354 10.4 99610 70
2006-11-21 08:43:17 51°21.774 2°58.221 8.4 355 10.4 99620 71
2006-11-21 08:43:22 51°21.774 2°58.222 9.3 -999 10.4 99620 71
2006-11-21 08:43:27 51°21.773 2°58.223 9.7 360 10.5 99630 72
2006-11-21 08:43:33 51°21.772 2°58.223 9.1 360 10.5 99630 72
2006-11-21 08:43:37 51°21.772 2°58.224 9.3 2 10.5 99620 72
2006-11-21 08:43:41 51°21.771 2°58.225 8.9 5 10.5 99620 72
2006-11-21 08:43:47 51°21.771 2°58.225 8.8 8 10.5 99620 72
2006-11-21 08:43:53 51°21.77 2°58.227 12.6 10 10.5 99620 72
2006-11-21 08:43:57 51°21.77 2°58.227 11.8 11 10.5 99620 72
2006-11-21 08:44:02 51°21.769 2°58.227 11.6 11 10.5 99620 72
2006-11-21 08:44:08 51°21.768 2°58.227 11.1 11 10.5 99620 72
2006-11-21 08:44:12 51°21.768 2°58.228 9.9 16 10.4 99620 71
2006-11-21 08:44:17 51°21.767 2°58.228 9.9 11 10.4 99610 71
2006-11-21 08:44:22 51°21.766 2°58.228 11.5 18 10.4 99610 71
2006-11-21 08:44:27 51°21.766 2°58.228 11.9 15 10.4 99610 71
2006-11-21 08:44:32 51°21.765 2°58.228 12.3 16 10.4 99610 71
2006-11-21 08:44:37 51°21.764 2°58.229 12 17 10.4 99620 71
2006-11-21 08:44:41 51°21.764 2°58.229 11.4 19 10.4 99620 71
2006-11-21 08:44:47 51°21.763 2°58.229 11.9 20 10.4 99620 70
2006-11-21 08:44:51 51°21.762 2°58.229 10.7 -999 10.4 99620 70
2006-11-21 08:44:56 51°21.762 2°58.229 11.1 23 10.4 99620 70